Time,TemperatureF,DewpointF,PressureIn,WindDirection,WindDirectionDegrees,WindSpeedMPH,WindSpeedGustMPH,Humidity,HourlyPrecipIn,Conditions,Clouds,dailyrainin,SoftwareType,DateUTC
2013-06-12 00:03:00,82.0,66.0,29.79,SSE,160,17.0,29.0,58,-99.99,,,-99.99,,2013-06-12 05:03:00,
2013-06-12 00:12:00,81.0,68.0,29.80,South,170,18.0,28.0,65,-99.99,,,-99.99,,2013-06-12 05:12:00,
2013-06-12 00:22:00,81.0,68.0,29.80,South,170,16.0,24.0,65,-99.99,,,-99.99,,2013-06-12 05:22:00,
2013-06-12 00:32:00,81.0,70.0,29.80,South,170,17.0,24.0,69,-99.99,,,-99.99,,2013-06-12 05:32:00,
2013-06-12 00:42:00,81.0,70.0,29.80,SSE,160,15.0,24.0,69,-99.99,,,-99.99,,2013-06-12 05:42:00,
2013-06-12 00:52:00,81.0,70.0,29.80,South,170,17.0,23.0,69,-99.99,,,-99.99,,2013-06-12 05:52:00,
2013-06-12 01:02:00,81.0,70.0,29.80,South,170,17.0,23.0,69,-99.99,,,-99.99,,2013-06-12 06:02:00,
2013-06-12 01:12:00,81.0,70.0,29.80,South,180,16.0,24.0,69,-99.99,,,-99.99,,2013-06-12 06:12:00,
2013-06-12 01:22:00,81.0,70.0,29.80,South,180,20.0,25.0,69,-99.99,,,-99.99,,2013-06-12 06:22:00,
2013-06-12 01:32:00,79.0,70.0,29.80,South,180,17.0,25.0,73,-99.99,,,-99.99,,2013-06-12 06:32:00,
2013-06-12 01:42:00,79.0,70.0,29.81,South,180,17.0,24.0,73,-99.99,,,-99.99,,2013-06-12 06:42:00,
2013-06-12 01:52:00,79.0,70.0,29.81,South,180,16.0,24.0,73,-99.99,,,-99.99,,2013-06-12 06:52:00,
2013-06-12 02:02:00,79.0,70.0,29.81,South,180,17.0,-999.0,73,-99.99,,,-99.99,,2013-06-12 07:02:00,
2013-06-12 02:12:00,79.0,70.0,29.81,South,180,17.0,24.0,73,-99.99,,,-99.99,,2013-06-12 07:12:00,
2013-06-12 02:22:00,79.0,70.0,29.81,South,180,15.0,24.0,73,-99.99,,,-99.99,,2013-06-12 07:22:00,
2013-06-12 02:33:00,79.0,70.0,29.81,South,180,16.0,22.0,73,-99.99,,,-99.99,,2013-06-12 07:33:00,
2013-06-12 02:43:00,79.0,70.0,29.81,South,180,16.0,20.0,73,-99.99,,,-99.99,,2013-06-12 07:43:00,
2013-06-12 02:53:00,79.0,70.0,29.81,South,180,15.0,23.0,73,-99.99,,,-99.99,,2013-06-12 07:53:00,
2013-06-12 03:02:00,77.0,70.0,29.81,South,180,14.0,-999.0,78,-99.99,,,-99.99,,2013-06-12 08:02:00,
2013-06-12 03:12:00,77.0,70.0,29.81,South,180,14.0,21.0,78,-99.99,,,-99.99,,2013-06-12 08:12:00,
2013-06-12 03:22:00,77.0,70.0,29.81,South,170,17.0,-999.0,78,-99.99,,,-99.99,,2013-06-12 08:22:00,
2013-06-12 03:33:00,77.0,70.0,29.81,South,180,16.0,22.0,78,-99.99,,,-99.99,,2013-06-12 08:33:00,
2013-06-12 03:43:00,77.0,70.0,29.80,South,170,16.0,22.0,78,-99.99,,,-99.99,,2013-06-12 08:43:00,
2013-06-12 03:53:00,75.0,70.0,29.80,South,180,14.0,20.0,83,-99.99,,,-99.99,,2013-06-12 08:53:00,
2013-06-12 04:01:00,75.0,70.0,29.79,South,170,16.0,22.0,83,-99.99,,,-99.99,,2013-06-12 09:01:00,
2013-06-12 04:11:00,75.0,70.0,29.79,South,170,16.0,23.0,83,-99.99,,,-99.99,,2013-06-12 09:11:00,
2013-06-12 04:22:00,75.0,70.0,29.79,South,180,15.0,20.0,83,-99.99,,,-99.99,,2013-06-12 09:22:00,
2013-06-12 04:33:00,75.0,70.0,29.79,South,180,15.0,21.0,83,-99.99,,,-99.99,,2013-06-12 09:33:00,
2013-06-12 04:42:00,75.0,70.0,29.80,South,180,16.0,-999.0,83,-99.99,,,-99.99,,2013-06-12 09:42:00,
2013-06-12 04:53:00,75.0,70.0,29.80,South,180,16.0,22.0,83,-99.99,,,-99.99,,2013-06-12 09:53:00,
2013-06-12 05:01:00,75.0,70.0,29.80,South,180,14.0,-999.0,83,-99.99,,,-99.99,,2013-06-12 10:01:00,
2013-06-12 05:11:00,75.0,68.0,29.80,South,180,15.0,-999.0,78,-99.99,,,-99.99,,2013-06-12 10:11:00,
2013-06-12 05:23:00,75.0,68.0,29.80,South,180,15.0,20.0,78,-99.99,,,-99.99,,2013-06-12 10:23:00,
2013-06-12 05:33:00,75.0,68.0,29.80,South,180,15.0,22.0,78,-99.99,,,-99.99,,2013-06-12 10:33:00,
2013-06-12 05:43:00,75.0,68.0,29.80,South,180,16.0,-999.0,78,-99.99,,,-99.99,,2013-06-12 10:43:00,
2013-06-12 05:53:00,75.0,68.0,29.80,South,170,15.0,21.0,78,-99.99,,,-99.99,,2013-06-12 10:53:00,
2013-06-12 06:02:00,73.0,68.0,29.80,South,170,15.0,-999.0,83,-99.99,,,-99.99,,2013-06-12 11:02:00,
2013-06-12 06:12:00,73.0,66.0,29.80,South,180,14.0,20.0,78,-99.99,,,-99.99,,2013-06-12 11:12:00,
2013-06-12 06:24:00,73.0,66.0,29.80,South,180,15.0,-999.0,78,-99.99,,,-99.99,,2013-06-12 11:24:00,
2013-06-12 06:33:00,75.0,66.0,29.81,South,190,13.0,21.0,73,-99.99,,,-99.99,,2013-06-12 11:33:00,
2013-06-12 06:43:00,75.0,66.0,29.81,South,190,14.0,-999.0,73,-99.99,,,-99.99,,2013-06-12 11:43:00,
2013-06-12 06:53:00,75.0,66.0,29.82,South,190,14.0,18.0,73,-99.99,,,-99.99,,2013-06-12 11:53:00,
2013-06-12 07:01:00,75.0,66.0,29.82,South,190,12.0,18.0,73,-99.99,,,-99.99,,2013-06-12 12:01:00,
2013-06-12 07:11:00,75.0,66.0,29.82,South,190,13.0,18.0,73,-99.99,,,-99.99,,2013-06-12 12:11:00,
2013-06-12 07:23:00,75.0,66.0,29.82,South,190,15.0,21.0,73,-99.99,,,-99.99,,2013-06-12 12:23:00,
2013-06-12 07:33:00,75.0,66.0,29.82,SSW,200,14.0,23.0,73,-99.99,,,-99.99,,2013-06-12 12:33:00,
2013-06-12 07:42:00,75.0,66.0,29.82,South,190,15.0,21.0,73,-99.99,,,-99.99,,2013-06-12 12:42:00,
2013-06-12 07:53:00,77.0,66.0,29.82,South,190,16.0,20.0,69,-99.99,,,-99.99,,2013-06-12 12:53:00,
2013-06-12 08:01:00,77.0,66.0,29.82,SSW,200,14.0,18.0,69,-99.99,,,-99.99,,2013-06-12 13:01:00,
2013-06-12 08:12:00,79.0,66.0,29.82,SSW,210,14.0,21.0,65,-99.99,,,-99.99,,2013-06-12 13:12:00,
2013-06-12 08:22:00,79.0,66.0,29.83,SSW,210,14.0,23.0,65,-99.99,,,-99.99,,2013-06-12 13:22:00,
2013-06-12 08:32:00,79.0,66.0,29.83,SSW,210,15.0,21.0,65,-99.99,,,-99.99,,2013-06-12 13:32:00,
2013-06-12 08:43:00,79.0,66.0,29.84,SSW,210,13.0,23.0,65,-99.99,,,-99.99,,2013-06-12 13:43:00,
2013-06-12 08:53:00,79.0,66.0,29.84,SSW,210,12.0,20.0,65,-99.99,,,-99.99,,2013-06-12 13:53:00,
2013-06-12 09:01:00,81.0,66.0,29.84,SSW,210,14.0,22.0,61,-99.99,,,-99.99,,2013-06-12 14:01:00,
2013-06-12 09:11:00,81.0,66.0,29.85,SW,220,14.0,20.0,61,-99.99,,,-99.99,,2013-06-12 14:11:00,
2013-06-12 09:23:00,81.0,66.0,29.85,SW,220,15.0,20.0,61,-99.99,,,-99.99,,2013-06-12 14:23:00,
2013-06-12 09:33:00,82.0,66.0,29.85,SW,220,10.0,20.0,58,-99.99,,,-99.99,,2013-06-12 14:33:00,
2013-06-12 09:43:00,82.0,66.0,29.85,SW,220,12.0,21.0,58,-99.99,,,-99.99,,2013-06-12 14:43:00,
2013-06-12 09:53:00,84.0,66.0,29.84,SW,220,14.0,20.0,54,-99.99,,,-99.99,,2013-06-12 14:53:00,
2013-06-12 10:01:00,84.0,64.0,29.85,SW,230,13.0,20.0,51,-99.99,,,-99.99,,2013-06-12 15:01:00,
2013-06-12 10:12:00,84.0,64.0,29.85,WSW,240,14.0,21.0,51,-99.99,,,-99.99,,2013-06-12 15:12:00,
2013-06-12 10:23:00,84.0,64.0,29.86,WSW,250,12.0,21.0,51,-99.99,,,-99.99,,2013-06-12 15:23:00,
2013-06-12 10:33:00,86.0,66.0,29.86,WSW,250,14.0,17.0,51,-99.99,,,-99.99,,2013-06-12 15:33:00,
2013-06-12 10:43:00,86.0,64.0,29.86,WSW,240,14.0,18.0,48,-99.99,,,-99.99,,2013-06-12 15:43:00,
2013-06-12 10:52:00,86.0,64.0,29.86,WSW,250,12.0,-999.0,48,-99.99,,,-99.99,,2013-06-12 15:52:00,
2013-06-12 11:01:00,88.0,66.0,29.86,WSW,250,9.0,-999.0,48,-99.99,,,-99.99,,2013-06-12 16:01:00,
2013-06-12 11:11:00,88.0,66.0,29.86,West,260,10.0,17.0,48,-99.99,,,-99.99,,2013-06-12 16:11:00,
2013-06-12 11:22:00,88.0,66.0,29.86,WSW,240,8.0,-999.0,48,-99.99,,,-99.99,,2013-06-12 16:22:00,
2013-06-12 11:32:00,88.0,66.0,29.86,WSW,250,8.0,-999.0,48,-99.99,,,-99.99,,2013-06-12 16:32:00,
2013-06-12 11:43:00,90.0,68.0,29.87,West,270,8.0,-999.0,49,-99.99,,,-99.99,,2013-06-12 16:43:00,
2013-06-12 11:52:00,90.0,66.0,29.87,West,260,8.0,-999.0,46,-99.99,,,-99.99,,2013-06-12 16:52:00,
2013-06-12 12:01:00,91.0,66.0,29.88,NW,320,7.0,-999.0,43,-99.99,,,-99.99,,2013-06-12 17:01:00,
2013-06-12 12:11:00,91.0,66.0,29.88,West,280,5.0,-999.0,43,-99.99,,,-99.99,,2013-06-12 17:11:00,
2013-06-12 12:22:00,91.0,66.0,29.89,NW,310,8.0,-999.0,43,-99.99,,,-99.99,,2013-06-12 17:22:00,
2013-06-12 12:33:00,91.0,68.0,29.89,WSW,250,5.0,-999.0,46,-99.99,,,-99.99,,2013-06-12 17:33:00,
2013-06-12 12:42:00,91.0,66.0,29.89,NW,320,3.0,-999.0,43,-99.99,,,-99.99,,2013-06-12 17:42:00,
2013-06-12 12:52:00,93.0,68.0,29.89,NW,310,8.0,-999.0,43,-99.99,,,-99.99,,2013-06-12 17:52:00,
2013-06-12 13:02:00,93.0,70.0,29.89,WNW,300,5.0,-999.0,46,-99.99,,,-99.99,,2013-06-12 18:02:00,
2013-06-12 13:12:00,93.0,68.0,29.88,NNW,340,7.0,-999.0,43,-99.99,,,-99.99,,2013-06-12 18:12:00,
2013-06-12 13:22:00,93.0,70.0,29.88,NNW,330,3.0,-999.0,46,-99.99,,,-99.99,,2013-06-12 18:22:00,
2013-06-12 13:32:00,93.0,68.0,29.88,West,270,3.0,-999.0,43,-99.99,,,-99.99,,2013-06-12 18:32:00,
2013-06-12 13:43:00,95.0,70.0,29.88,WNW,300,5.0,-999.0,44,-99.99,,,-99.99,,2013-06-12 18:43:00,
2013-06-12 13:53:00,95.0,68.0,29.88,North,0,0.0,-999.0,41,-99.99,,,-99.99,,2013-06-12 18:53:00,
2013-06-12 14:01:00,95.0,70.0,29.88,North,0,0.0,-999.0,44,-99.99,,,-99.99,,2013-06-12 19:01:00,
2013-06-12 14:11:00,95.0,68.0,29.88,North,0,0.0,-999.0,41,-99.99,,,-99.99,,2013-06-12 19:11:00,
2013-06-12 14:22:00,95.0,70.0,29.88,NW,320,3.0,-999.0,44,-99.99,,,-99.99,,2013-06-12 19:22:00,
2013-06-12 14:32:00,97.0,70.0,29.88,WNW,290,6.0,-999.0,41,-99.99,,,-99.99,,2013-06-12 19:32:00,
2013-06-12 14:42:00,97.0,68.0,29.88,NW,320,3.0,-999.0,39,-99.99,,,-99.99,,2013-06-12 19:42:00,
2013-06-12 14:52:00,97.0,68.0,29.89,North,0,0.0,-999.0,39,-99.99,,,-99.99,,2013-06-12 19:52:00,
2013-06-12 15:01:00,97.0,70.0,29.89,NNW,330,5.0,-999.0,41,-99.99,,,-99.99,,2013-06-12 20:01:00,
2013-06-12 15:11:00,97.0,66.0,29.89,North,0,0.0,-999.0,36,-99.99,,,-99.99,,2013-06-12 20:11:00,
2013-06-12 15:21:00,97.0,70.0,29.88,North,10,6.0,-999.0,41,-99.99,,,-99.99,,2013-06-12 20:21:00,
2013-06-12 15:32:00,97.0,70.0,29.88,NW,310,7.0,-999.0,41,-99.99,,,-99.99,,2013-06-12 20:32:00,
2013-06-12 15:42:00,99.0,66.0,29.88,North,0,0.0,-999.0,34,-99.99,,,-99.99,,2013-06-12 20:42:00,
2013-06-12 15:54:00,99.0,66.0,29.88,West,260,5.0,-999.0,34,-99.99,,,-99.99,,2013-06-12 20:54:00,
2013-06-12 16:01:00,99.0,64.0,29.89,North,0,0.0,-999.0,32,-99.99,,,-99.99,,2013-06-12 21:01:00,
2013-06-12 16:11:00,99.0,66.0,29.88,NW,320,3.0,-999.0,34,-99.99,,,-99.99,,2013-06-12 21:11:00,
2013-06-12 16:21:00,99.0,66.0,29.88,NE,40,3.0,-999.0,34,-99.99,,,-99.99,,2013-06-12 21:21:00,
2013-06-12 16:33:00,99.0,66.0,29.88,North,0,0.0,-999.0,34,-99.99,,,-99.99,,2013-06-12 21:33:00,
2013-06-12 16:43:00,99.0,66.0,29.88,North,0,0.0,-999.0,34,-99.99,,,-99.99,,2013-06-12 21:43:00,
2013-06-12 16:52:00,99.0,66.0,29.88,East,80,6.0,-999.0,34,-99.99,,,-99.99,,2013-06-12 21:52:00,
2013-06-12 17:01:00,99.0,66.0,29.88,ESE,110,3.0,-999.0,34,-99.99,,,-99.99,,2013-06-12 22:01:00,
2013-06-12 17:11:00,99.0,68.0,29.88,ENE,60,5.0,-999.0,37,-99.99,,,-99.99,,2013-06-12 22:11:00,
2013-06-12 17:22:00,99.0,66.0,29.88,NE,50,5.0,-999.0,34,-99.99,,,-99.99,,2013-06-12 22:22:00,
2013-06-12 17:32:00,99.0,66.0,29.88,North,0,0.0,-999.0,34,-99.99,,,-99.99,,2013-06-12 22:32:00,
2013-06-12 17:43:00,97.0,70.0,29.88,North,350,3.0,-999.0,41,-99.99,,,-99.99,,2013-06-12 22:43:00,
2013-06-12 17:52:00,99.0,70.0,29.88,North,0,0.0,-999.0,39,-99.99,,,-99.99,,2013-06-12 22:52:00,
2013-06-12 18:01:00,97.0,66.0,29.88,North,0,0.0,-999.0,36,-99.99,,,-99.99,,2013-06-12 23:01:00,
2013-06-12 18:12:00,97.0,70.0,29.88,NNW,340,3.0,-999.0,41,-99.99,,,-99.99,,2013-06-12 23:12:00,
2013-06-12 18:22:00,95.0,70.0,29.88,NNE,30,6.0,-999.0,44,-99.99,,,-99.99,,2013-06-12 23:22:00,
2013-06-12 18:32:00,97.0,70.0,29.88,NE,40,6.0,-999.0,41,-99.99,,,-99.99,,2013-06-12 23:32:00,
2013-06-12 18:42:00,97.0,68.0,29.88,NNE,30,7.0,-999.0,39,-99.99,,,-99.99,,2013-06-12 23:42:00,
2013-06-12 18:52:00,97.0,68.0,29.88,ENE,60,6.0,-999.0,39,-99.99,,,-99.99,,2013-06-12 23:52:00,
2013-06-12 19:01:00,97.0,66.0,29.88,ENE,60,6.0,-999.0,36,-99.99,,,-99.99,,2013-06-13 00:01:00,
2013-06-12 19:11:00,95.0,68.0,29.88,NE,40,6.0,-999.0,41,-99.99,,,-99.99,,2013-06-13 00:11:00,
2013-06-12 19:22:00,95.0,70.0,29.89,NE,50,6.0,-999.0,44,-99.99,,,-99.99,,2013-06-13 00:22:00,
2013-06-12 19:32:00,93.0,72.0,29.89,NE,50,7.0,-999.0,49,-99.99,,,-99.99,,2013-06-13 00:32:00,
2013-06-12 19:42:00,93.0,73.0,29.89,NE,50,6.0,-999.0,52,-99.99,,,-99.99,,2013-06-13 00:42:00,
2013-06-12 19:52:00,91.0,72.0,29.90,NE,40,6.0,-999.0,52,-99.99,,,-99.99,,2013-06-13 00:52:00,
2013-06-12 20:01:00,91.0,73.0,29.90,NE,40,6.0,-999.0,55,-99.99,,,-99.99,,2013-06-13 01:01:00,
2013-06-12 20:12:00,90.0,73.0,29.90,NNE,30,6.0,-999.0,59,-99.99,,,-99.99,,2013-06-13 01:12:00,
2013-06-12 21:52:00,81.0,72.0,29.92,NNE,30,7.0,-999.0,74,-99.99,,,-99.99,,2013-06-13 02:52:00,
2013-06-12 22:11:00,81.0,72.0,29.94,NNE,30,8.0,-999.0,74,-99.99,,,-99.99,,2013-06-13 03:11:00,
2013-06-12 22:22:00,81.0,72.0,29.94,NNE,30,8.0,-999.0,74,-99.99,,,-99.99,,2013-06-13 03:22:00,
2013-06-12 22:33:00,81.0,72.0,29.95,NE,40,8.0,-999.0,74,-99.99,,,-99.99,,2013-06-13 03:33:00,
2013-06-12 22:42:00,79.0,70.0,29.96,NNE,30,7.0,-999.0,73,-99.99,,,-99.99,,2013-06-13 03:42:00,
2013-06-12 22:52:00,79.0,70.0,29.96,NNE,20,8.0,-999.0,73,-99.99,,,-99.99,,2013-06-13 03:52:00,
2013-06-12 23:01:00,79.0,70.0,29.96,NNE,20,8.0,-999.0,73,-99.99,,,-99.99,,2013-06-13 04:01:00,
2013-06-12 23:11:00,81.0,66.0,29.96,NNE,20,10.0,-999.0,61,-99.99,,,-99.99,,2013-06-13 04:11:00,
2013-06-12 23:22:00,81.0,64.0,29.97,NNE,30,9.0,-999.0,57,-99.99,,,-99.99,,2013-06-13 04:22:00,
2013-06-12 23:32:00,81.0,64.0,29.97,NNE,30,10.0,-999.0,57,-99.99,,,-99.99,,2013-06-13 04:32:00,
2013-06-12 23:43:00,81.0,64.0,29.97,NNE,20,9.0,-999.0,57,-99.99,,,-99.99,,2013-06-13 04:43:00,
2013-06-12 23:53:00,79.0,64.0,29.98,NNE,30,9.0,-999.0,61,-99.99,,,-99.99,,2013-06-13 04:53:00,